Location: �perlecques
(50.8057°N, 2.1521°E)
Time: 07:10:31
(UTC+00:00)

Meteor 2-2 Rocket - Pass Details

Date: 09 April 2020
Orbit: 853 x 928 km, 81.3° (Epoch: 02 June)

Event Time Altitude Azimuth Distance (km) Brightness Sun altitude
Exits shadow 22:24:31 57° 64° (ENE) 1,005 4.5 -28.2°
Drops below altitude 10° 22:29:26 10° 18° (NNE) 2,499 7.2 -28.5°
Sets 22:31:52 0° 15° (NNE) 3,437 8.1 -28.6°
